Мюр

Франция     48°20′59″N   2°29′35″W
В апреле 2022 года жителям России запретили посещать сайт meteo.paraplan.net по решению Генеральной прокуратуры. Аудитория сайта уменьшилась в 10 раз. Владельцы сайта не видят смысла в поддержке погодного сервера в таких условиях. Сайт будет закрыт в октябре.
темп.,
°C
ветер,
м/с
пор.,
м/с
влажн.,
%
обл.,
%
осадки,
мм/ч
давл.,
гПа
погр.,
м
3 октября, пн
пн323:00+14всв489825 0.1 1024229
02:00+13св3595100 0.1 1025161
05:00+13всв239793 0.0 102457
08:00+12вюв239887 0.0 102463
11:00+15ююв478546 0.0 1024485
14:00+20ююв565416 0.0 10231237
17:00+21ююз565114 0.0 10221340
20:00+15ююз35765 0.0 102283
4 октября, вт
вт423:00+12зюз22885 0.0 102228
02:00+11юз22930 0.0 102115
05:00+11юз22966 0.0 102020
08:00+10юз229633 0.0 102019
11:00+15юз34769 0.0 1020324
14:00+20юз4560100 0.0 1020977
17:00+20юз6658100 0.0 10191067
20:00+16юз5979100 0.0 1019328
5 октября, ср
ср523:00+13ююз41095100 0.0 1019307
02:00+13ююз51297100 0.0 1018398
05:00+13ююз61498100 0.0 1015454
08:00+15ююз8168931 0.0 1014649
11:00+18юз916751 0.0 1015938
14:00+17з81286100 0.3 10171125
17:00+16сз7106524 0.3 10201150
20:00+13сз510680 0.3 1025343
6 октября, чт
чт623:00+9зсз338693 0.0 102945
02:00+8з23910 0.0 103133
05:00+8з22890 0.0 103213
08:00+7зсз22880 0.0 103312
11:00+13ссз22620 0.0 1033498
14:00+16ссв22455 0.0 10321178
17:00+17ссв22415 0.0 10301359
20:00+11св357555 0.0 103078
7 октября, пт
пт723:00+9ссв228183 0.0 103014
02:00+9ссв117589 0.0 102911
05:00+8с118059 0.0 102710
08:00+8ссв1184100 0.0 102710
11:00+13св116184 0.0 1027242
14:00+18сз114418 0.0 10251055
17:00+19сз23370 0.0 10231441
20:00+11с46750 0.0 102485